Carlsbad, CA

12:36 AM PDT on September 26, 2016 (GMT -0700)
McClellan-Palomar

Weather History for KCRQ - February, 2014

Change the Weather History Date:

Wednesday, February 26, 2014

  Actual Average Record
Temperature  
Mean Temperature 60 °F -  
Max Temperature 64 °F 59 °F 73 °F (2002)
Min Temperature 57 °F 47 °F 43 °F (2011)
Degree Days  
Heating Degree Days 4    
Growing Degree Days 10 (Base 50)    
Moisture  
Dew Point 50 °F    
Average Humidity 71    
Maximum Humidity 81    
Minimum Humidity 52    
Precipitation  
Precipitation 0.00 in - - ()
Sea Level Pressure  
Sea Level Pressure 30.04 in    
Wind  
Wind Speed 4 mph (South)    
Max Wind Speed 13 mph    
Max Gust Speed -    
Visibility 10 miles    
Events      
Averages and records for this station are not official NWS values.
T = Trace of Precipitation, MM = Missing Value Source: NWS Daily Summary

Daily Weather History Graph

Daily Weather History Graph

Search for Another Location

Airport or City:

Trip Planner

Search our weather history database for the weather conditions in past years. The results will help you decide how hot, cold, wet, or windy it might be!

Date:

Astronomy

Feb. 26, 2014 Rise Set
Actual Time 6:20 AM PST 5:43 PM PST
Civil Twilight 5:55 AM PST 6:08 PM PST
Nautical Twilight 5:26 AM PST 6:37 PM PST
Astronomical Twilight 4:58 AM PST 7:06 PM PST
Moon 4:04 AM PST 3:09 PM PST
Length of Visible Light 12h 12m
Length of Day
11h 23m
Waning Crescent, 9% of the Moon is Illuminated
Feb 26
Waning Crescent
Mar 1
New
Mar 8
First Quarter
Mar 16
Full
Mar 23
Last Quarter

Hourly Weather History & Observations

Time (PST) Temp. Dew Point Humidity Pressure Visibility Wind Dir Wind Speed Gust Speed Precip Events Conditions
12:06 AM 57.2 °F 50.0 °F 77% 30.04 in 10.0 mi Calm Calm - N/A   Scattered Clouds
12:37 AM 57.2 °F 50.0 °F 77% 30.04 in 10.0 mi Calm Calm - N/A   Mostly Cloudy
12:53 AM 57.9 °F 50.0 °F 75% 30.04 in 10.0 mi SW 3.5 mph - N/A   Overcast
1:53 AM 57.9 °F 50.0 °F 75% 30.04 in 10.0 mi SW 3.5 mph - N/A   Overcast
2:53 AM 57.9 °F 50.0 °F 75% 30.03 in 10.0 mi Calm Calm - N/A   Overcast
3:39 AM 57.2 °F 50.0 °F 77% 30.03 in 10.0 mi SE 3.5 mph - N/A   Overcast
3:53 AM 57.0 °F 50.0 °F 77% 30.03 in 10.0 mi SSE 3.5 mph - N/A   Overcast
4:53 AM 57.0 °F 50.0 °F 77% 30.04 in 10.0 mi SSE 3.5 mph - N/A   Overcast
5:53 AM 57.0 °F 50.0 °F 77% 30.06 in 10.0 mi SE 3.5 mph - N/A   Overcast
6:53 AM 57.0 °F 48.9 °F 74% 30.07 in 10.0 mi SE 4.6 mph - N/A   Overcast
7:53 AM 60.1 °F 48.0 °F 64% 30.07 in 10.0 mi East 6.9 mph - N/A   Overcast
8:53 AM 62.1 °F 45.0 °F 53% 30.07 in 10.0 mi ESE 6.9 mph - N/A   Mostly Cloudy
9:53 AM 63.0 °F 46.0 °F 54% 30.05 in 10.0 mi ESE 5.8 mph - N/A   Overcast
10:53 AM 64.0 °F 46.0 °F 52% 30.04 in 10.0 mi Variable 5.8 mph - N/A   Scattered Clouds
11:53 AM 62.1 °F 50.0 °F 65% 30.06 in 10.0 mi West 12.7 mph - N/A   Overcast
12:53 PM 62.1 °F 48.9 °F 62% 30.04 in 10.0 mi SW 10.4 mph - N/A   Overcast
1:53 PM 62.1 °F 48.9 °F 62% 30.02 in 10.0 mi SW 8.1 mph - N/A   Overcast
2:53 PM 63.0 °F 50.0 °F 63% 30.02 in 10.0 mi WSW 9.2 mph - N/A   Clear
3:53 PM 63.0 °F 50.0 °F 63% 30.02 in 10.0 mi West 8.1 mph - N/A   Partly Cloudy
4:53 PM 61.0 °F 50.0 °F 67% 30.02 in 10.0 mi West 5.8 mph - N/A   Overcast
5:53 PM 60.1 °F 51.1 °F 72% 30.02 in 10.0 mi SW 3.5 mph - N/A   Clear
6:53 PM 59.0 °F 52.0 °F 78% 30.04 in 10.0 mi South 3.5 mph - N/A   Clear
7:53 PM 59.0 °F 53.1 °F 81% 30.05 in 10.0 mi SSW 3.5 mph - N/A   Mostly Cloudy
8:53 PM 59.0 °F 52.0 °F 78% 30.04 in 10.0 mi East 6.9 mph - N/A   Overcast
9:53 PM 59.0 °F 52.0 °F 78% 30.05 in 10.0 mi Calm Calm - N/A   Mostly Cloudy
10:53 PM 57.9 °F 51.1 °F 78% 30.04 in 10.0 mi Calm Calm - N/A   Mostly Cloudy
11:53 PM 57.9 °F 51.1 °F 78% 30.02 in 10.0 mi SE 4.6 mph - N/A   Overcast